DECAYED

STARLINK-1041, 44746 (Decayed)

Orbit data source: Space-Track

STARLINK-1041, 44746 was a payload satellite owned by SpaceX/Seattle (US) in LEO that was launched on Mon, 11 Nov 2019 UTC via an FALCON 9 launch vehicle from the Air Force Eastern Test Range (AFETR). Payloads include a variety of satellites, spacecraft, and rockets equipped with specific instruments for various scientific and technological missions. These include communications satellites like Starlink; space stations such as the ISS; scientific satellites like the Hubble; Earth observation satellites from companies like Planet Labs, Umbra, and HawkEye 360; GPS; miniature CubeSats for education and research; and military/defense satellites.

Not visible in the next 10 days
STARLINK-1041 details
Identifier
44746, 2019-074AK
Orbit
Decayed
Last TLE update4 months ago
Origin
Flag of USSpaceX/Seattle (US)
ManufacturerSpaceX/Seattle
MissionDecayed Commercial Communications
Bus & MotorSTARLINK, Unknown motor
Mass260 kg wet, ~248 kg dry
Launch date (UTC)
2019-11-11 (5 years ago)
Launch vehicle
FALCON 9
Launch site
Air Force Eastern Test Range (AFETR)
Object type
Payload
Rocket body
Debris
Shape & HBRBox + 1 Pan, 8.86 m
Radar Cross Section13.562 m², Large (>1 m²)

Expand to show TLE details & history

TLE from 4 months ago
0 STARLINK-1041
1 44746U 19074AK  24251.51359425  .23849555  11982-4  32783-2 0  9995
2 44746  53.0253 109.0608 0013845 202.2812 241.2309 16.34059545266521
Epoch: 2024-09-07T12:19Z
Definitive object data (Epoch: 2024-09-07T12:19:34.543Z)
Latitude52.67764°
Longitude16.15086°
Altitude192.398 km
Speed7.795 km/s
True Right ascension12h 32m 27s
True Declination52° 29' 51"
Sunlit
Object was in daylight at TLE epoch
Visualization observer readout
Observer readout values are unavailable because the object's trajectory could not be propagated. This is usually caused when the trajectory data is faulty or the object's orbit has decayed.
Visualization observer readout
Observer readout values are unavailable because the object's trajectory could not be propagated. This is usually caused when the trajectory data is faulty or the object's orbit has decayed.
Orbital elements
Apogee altitude191.026 km
Perigee altitude172.861 km
Semi-major axis6,560.08 km
Eccentricity0.0013845
Inclination53.0253°
RAAN109.0608°
Arg. of periapsis202.2812°
True anomaly241.09195°
Mean anomaly241.2309°
Eccentric anomaly241.16141°
Mean motion4.08488 °/min
BSTAR0.0032783
Orbital period88.13 mins
Loading maneuver chart data...

STARLINK-1041 Visibility forecast

Observer location: undefined°, undefined

This satellite is decayed
Span
Click to sort rows by Start time (UTC) header in descending order
Start Az.
Max El. time (UTC)
Max El. Az.
Max El.
End time (UTC)
End Az.
|